User: anonymous   Login
Location: Unspecified
(0.0000°N, 0.0000°E)
Time: 09:08:16
(UTC+00:00)
Language:

GONETS M 12 (M22) - Orbit

View from above orbital plane
View from above orbital plane
View from above satellite
View from above satellite

Ground track
Ground track

The orbit data is extracted from the following two-line orbital elements,

1 40553U 15020B   17118.92818691 +.00000010 +00000-0 +00000-0 0  9998
2 40553 082.4876 309.8670 0014933 063.2475 297.0134 12.42894710094326
Epoch (UTC): 28 April 2017 22:16:35
Eccentricity: 0.0014933
inclination: 82.4876°
perigee height: 1482 km
apogee height: 1506 km
right ascension of ascending node: 309.8670°
argument of perigee: 63.2475°
revolutions per day: 12.42894710
mean anomaly at epoch: 297.0134°
orbit number at epoch: 9432

The dashed part of the orbit path shows where the satellite is in the earth's shadow,  

DLR